Weather History for Sitka, AK

Change the Weather History Date:

Saturday, April 12, 2014

  Actual Average Record
Temperature  
Mean Temperature 38 °F -  
Max Temperature 46 °F 46 °F 57 °F (1963)
Min Temperature 30 °F 35 °F 25 °F (1986)
Degree Days  
Heating Degree Days 27    
Moisture  
Dew Point 31 °F    
Average Humidity 72    
Maximum Humidity 85    
Minimum Humidity 53    
Precipitation  
Precipitation 0.00 in - - ()
Sea Level Pressure  
Sea Level Pressure 30.33 in    
Wind  
Wind Speed 3 mph (South)    
Max Wind Speed 7 mph    
Max Gust Speed -    
Visibility 10 miles    
Events      
Averages and records for this station are not official NWS values.
T = Trace of Precipitation, MM = Missing Value Source: NWS Daily Summary

Daily Weather History Graph

Daily Weather History Graph

Search for Another Location

Airport:

Trip Planner

Search our weather history database for the weather conditions in past years. The results will help you decide how hot, cold, wet, or windy it might be!

Date:

Astronomy

Apr. 12, 2014 Rise Set
Actual Time 6:00 AM AKDT 8:05 PM AKDT
Civil Twilight 5:19 AM AKDT 8:46 PM AKDT
Nautical Twilight 4:27 AM AKDT 9:38 PM AKDT
Astronomical Twilight 3:25 AM AKDT 10:42 PM AKDT
Moon 5:26 PM AKDT (4/12) 5:01 AM AKDT (4/12)
Length of Visible Light 15h 26m
Length of Day
14h 04m
Waxing Gibbous, 93% of the Moon is Illuminated
Apr 12
Waxing Gibbous
Apr 14
Full
Apr 21
Last Quarter
Apr 28
New
May 6
First Quarter

Hourly Weather History & Observations

Time (AKDT) Temp. Windchill Dew Point Humidity Pressure Visibility Wind Dir Wind Speed Gust Speed Precip Events Conditions
12:53 AM 34.0 °F 29.8 °F 28.0 °F 79% 30.32 in 10.0 mi East 4.6 mph - N/A   Clear
1:53 AM 32.0 °F 28.7 °F 27.0 °F 82% 30.32 in 10.0 mi North 3.5 mph - N/A   Clear
2:53 AM 33.1 °F - 27.0 °F 78% 30.33 in 10.0 mi Calm Calm - N/A   Clear
3:53 AM 32.0 °F 28.7 °F 27.0 °F 82% 30.33 in 10.0 mi East 3.5 mph - N/A   Clear
4:53 AM 32.0 °F - 27.0 °F 82% 30.33 in 10.0 mi Calm Calm - N/A   Clear
5:53 AM 30.9 °F - 27.0 °F 85% 30.33 in 10.0 mi Calm Calm - N/A   Clear
6:53 AM 32.0 °F - 28.0 °F 85% 30.33 in 10.0 mi Calm Calm - N/A   Clear
7:53 AM 36.0 °F - 30.9 °F 82% 30.34 in 10.0 mi Calm Calm - N/A   Clear
8:53 AM 37.9 °F - 30.9 °F 76% 30.34 in 10.0 mi Calm Calm - N/A   Clear
9:53 AM 39.9 °F - 30.0 °F 68% 30.33 in 10.0 mi Calm Calm - N/A   Clear
10:53 AM 41.0 °F - 30.0 °F 65% 30.34 in 10.0 mi Calm Calm - N/A   Clear
11:53 AM 45.0 °F 42.6 °F 28.9 °F 53% 30.35 in 10.0 mi West 4.6 mph - N/A   Clear
12:53 PM 46.0 °F 44.8 °F 30.0 °F 54% 30.35 in 10.0 mi West 3.5 mph - N/A   Clear
1:53 PM 45.0 °F 41.8 °F 32.0 °F 60% 30.35 in 10.0 mi SW 5.8 mph - N/A   Scattered Clouds
2:53 PM 46.0 °F 43.1 °F 36.0 °F 68% 30.35 in 10.0 mi SW 5.8 mph - N/A   Scattered Clouds
3:53 PM 46.0 °F 42.5 °F 36.0 °F 68% 30.33 in 10.0 mi SW 6.9 mph - N/A   Scattered Clouds
4:53 PM 45.0 °F 42.6 °F 35.1 °F 68% 30.32 in 10.0 mi SW 4.6 mph - N/A   Scattered Clouds
5:53 PM 44.1 °F 42.5 °F 35.1 °F 71% 30.31 in 10.0 mi SSW 3.5 mph - N/A   Scattered Clouds
6:53 PM 44.1 °F - 34.0 °F 68% 30.30 in 10.0 mi Calm Calm - N/A   Mostly Cloudy
7:53 PM 43.0 °F - 34.0 °F 71% 30.31 in 10.0 mi Calm Calm - N/A   Mostly Cloudy
8:53 PM 41.0 °F 39.0 °F 30.9 °F 67% 30.31 in 10.0 mi East 3.5 mph - N/A   Overcast
9:53 PM 39.0 °F 35.7 °F 30.0 °F 70% 30.31 in 10.0 mi East 4.6 mph - N/A   Clear
10:53 PM 37.9 °F - 30.0 °F 73% 30.31 in 10.0 mi Calm Calm - N/A   Clear
11:53 PM 37.0 °F 33.3 °F 28.9 °F 73% 30.30 in 10.0 mi East 4.6 mph - N/A   Clear